SQ3X-13 Weather Reports


Display with metric or nautical units.
time (UTC)temp
F
wind
direction
speed
MPH
gust
MPH
rain 1hr
in
rain 24hr
in
rain mn
in
humidity
%
barometer
mb
20260506232002 50 354 7.0 145.0 0.00 0.00 0.00 9 1001.7
20260506231002 52 351 6.0 145.0 0.00 0.00 0.00 9 1001.8
20260506230002 52 351 6.0 145.0 0.00 0.00 0.00 9 1001.8
20260506225002 52 351 6.0 145.0 0.00 0.00 0.00 9 1001.9
20260506224002 52 351 6.0 145.0 0.00 0.00 0.00 9 1001.8
20260506223002 52 351 6.0 145.0 0.00 0.00 0.00 9 1001.7
20260506222002 52 351 6.0 145.0 0.00 0.00 0.00 9 1001.7
20260506221002 52 351 6.0 906.0 0.00 0.00 0.00 9 1001.7
20260506220002 54 352 8.0 563.0 0.00 0.00 0.00 8 1001.6
20260506215001 54 352 8.0 350.0 0.00 0.00 0.00 8 1001.6
20260506214003 54 352 8.0 350.0 0.00 0.00 0.00 8 1001.6
20260506213002 54 352 8.0 218.0 0.00 0.00 0.00 8 1001.7
20260506212003 54 352 8.0 136.0 0.00 0.00 0.00 8 1001.6
20260506211003 54 352 8.0 136.0 0.00 0.00 0.00 8 1001.7
20260506210002 55 338 6.0 85.0 0.00 0.00 0.00 8 1001.8
20260506205002 55 338 6.0 85.0 0.00 0.00 0.00 8 1001.8
20260506204003 55 338 6.0 53.0 0.00 0.00 0.00 8 1001.8
20260506203003 55 338 6.0 53.0 0.00 0.00 0.00 8 1001.9
20260506202003 55 338 6.0 33.0 0.00 0.00 0.00 8 1001.9
20260506201002 55 338 6.0 21.0 0.00 0.00 0.00 8 1001.9
20260506200002 59 340 6.0 21.0 0.00 0.00 0.00 8 1002.2
20260506195002 59 340 6.0 21.0 0.00 0.00 0.00 8 1002.2
20260506194002 59 340 6.0 65.0 0.00 0.00 0.00 8 1001.3
20260506193002 59 340 6.0 65.0 0.00 0.00 0.00 8 1001.2
20260506192002 59 340 6.0 41.0 0.00 0.00 0.00 8 1001.2
20260506191002 59 340 6.0 26.0 0.00 0.00 0.00 8 1001.2
20260506190002 61 323 6.0 26.0 0.00 0.00 0.00 8 1001.0
20260506185002 61 323 6.0 26.0 0.00 0.00 0.00 8 1000.9
20260506184002 61 323 6.0 26.0 0.00 0.00 0.00 8 1000.8
20260506183004 61 323 6.0 49.0 0.00 0.00 0.00 8 1000.5
20260506182002 61 323 6.0 49.0 0.00 0.00 0.00 8 1000.2
20260506181002 61 323 6.0 31.0 0.00 0.00 0.00 8 1000.2
20260506180002 66 289 8.0 109.0 0.00 0.00 0.00 6 1000.0
20260506175002 66 289 8.0 109.0 0.00 0.00 0.00 6 999.9
20260506174002 66 289 8.0 109.0 0.00 0.00 0.00 6 999.9
20260506173002 66 289 8.0 109.0 0.00 0.00 0.00 6 1000.1
20260506172002 66 289 8.0 109.0 0.00 0.00 0.00 6 999.9
20260506171002 66 289 8.0 109.0 0.00 0.00 0.00 6 1000.0
20260506170003 66 289 8.0 109.0 0.00 0.00 0.00 6 999.8
20260506165002 67 267 10.0 680.0 0.00 0.00 0.00 6 999.5
20260506164003 67 267 10.0 423.0 0.00 0.00 0.00 6 999.7
20260506163002 67 267 10.0 423.0 0.00 0.00 0.00 6 999.6
20260506162002 67 267 10.0 263.0 0.00 0.00 0.00 6 999.5
20260506161002 67 267 10.0 164.0 0.00 0.00 0.00 6 999.5
20260506160002 67 267 10.0 164.0 0.00 0.00 0.00 6 999.6
20260506155002 70 242 12.0 102.0 0.00 0.00 0.00 5 999.7
20260506154002 70 242 12.0 64.0 0.00 0.00 0.00 5 999.8
20260506153002 70 242 12.0 40.0 0.00 0.00 0.00 5 999.7
20260506152003 70 242 12.0 25.0 0.00 0.00 0.00 5 999.5
20260506151003 70 242 12.0 140.0 0.00 0.00 0.00 5 999.6
20260506150002 70 242 12.0 140.0 0.00 0.00 0.00 5 999.4
20260506145002 69 238 12.0 140.0 0.00 0.00 0.00 5 999.4
20260506144002 69 238 12.0 140.0 0.00 0.00 0.00 5 999.4
20260506143003 69 238 12.0 140.0 0.00 0.00 0.00 5 999.3
20260506142002 69 238 12.0 140.0 0.00 0.00 0.00 5 999.4
20260506141002 69 238 12.0 140.0 0.00 0.00 0.00 5 999.3
20260506140002 69 238 12.0 140.0 0.00 0.00 0.00 5 999.4
20260506135002 69 237 13.0 872.0 0.00 0.00 0.00 5 999.5
20260506134001 69 237 13.0 542.0 0.00 0.00 0.00 5 999.4
20260506133002 69 237 13.0 542.0 0.00 0.00 0.00 5 999.3
20260506132002 69 237 13.0 337.0 0.00 0.00 0.00 5 999.2
20260506131002 69 237 13.0 210.0 0.00 0.00 0.00 5 999.2
20260506130003 69 237 13.0 131.0 0.00 0.00 0.00 5 999.4
20260506125002 68 239 13.0 82.0 0.00 0.00 0.00 5 999.3
20260506124002 68 239 13.0 82.0 0.00 0.00 0.00 5 999.3
20260506123002 68 239 13.0 51.0 0.00 0.00 0.00 5 999.5
20260506122002 68 239 13.0 32.0 0.00 0.00 0.00 5 999.5
20260506121003 68 239 13.0 145.0 0.00 0.00 0.00 5 999.5
20260506120002 68 239 13.0 145.0 0.00 0.00 0.00 5 999.5
20260506115002 68 239 13.0 145.0 0.00 0.00 0.00 5 999.5
20260506114003 66 241 12.0 145.0 0.00 0.00 0.00 6 999.5
20260506113002 66 241 12.0 145.0 0.00 0.00 0.00 6 999.5
20260506112003 66 241 12.0 145.0 0.00 0.00 0.00 6 999.5
20260506111002 66 241 12.0 145.0 0.00 0.00 0.00 6 999.5
20260506110004 66 241 12.0 906.0 0.00 0.00 0.00 6 999.5
20260506105002 66 241 12.0 906.0 0.00 0.00 0.00 6 999.5
20260506104002 64 240 12.0 563.0 0.00 0.00 0.00 6 999.5
20260506103002 64 240 12.0 563.0 0.00 0.00 0.00 6 999.4
20260506102002 64 240 12.0 350.0 0.00 0.00 0.00 6 999.5
20260506101003 64 240 12.0 350.0 0.00 0.00 0.00 6 999.4
20260506100002 64 240 12.0 218.0 0.00 0.00 0.00 6 999.3
20260506095002 64 240 12.0 218.0 0.00 0.00 0.00 6 999.4
20260506094002 60 241 9.0 136.0 0.00 0.00 0.00 7 999.4
20260506093002 60 241 9.0 136.0 0.00 0.00 0.00 7 999.4
20260506092002 60 241 9.0 85.0 0.00 0.00 0.00 7 999.3
20260506091002 60 241 9.0 53.0 0.00 0.00 0.00 7 999.5
20260506090002 60 241 9.0 53.0 0.00 0.00 0.00 7 999.4
20260506085003 60 241 9.0 33.0 0.00 0.00 0.00 7 999.4
20260506084002 55 226 6.0 33.0 0.00 0.00 0.00 8 999.5
20260506083002 55 226 6.0 104.0 0.00 0.00 0.00 8 999.5
20260506082002 55 226 6.0 65.0 0.00 0.00 0.00 8 999.3
20260506081002 55 226 6.0 41.0 0.00 0.00 0.00 8 999.3
20260506073002 52 120 2.0 109.0 0.00 0.00 0.00 8 999.4
20260506072002 52 120 2.0 109.0 0.00 0.00 0.00 8 999.4
20260506071002 52 120 2.0 109.0 0.00 0.00 0.00 8 999.3
20260506062003 51 49 4.0 680.0 0.00 0.00 0.00 8 999.0
20260506061002 51 49 4.0 680.0 0.00 0.00 0.00 8 998.9
20260506051002 50 53 9.0 102.0 0.00 0.00 0.00 9 999.1
20260506045002 50 53 9.0 64.0 0.00 0.00 0.00 9 999.0
20260506044002 50 53 9.0 40.0 0.00 0.00 0.00 9 998.7
20260506043002 50 35 8.0 25.0 0.00 0.00 0.00 8 998.5
20260506042002 50 35 8.0 119.0 0.00 0.00 0.00 8 998.1
20260506041002 50 35 8.0 119.0 0.00 0.00 0.00 8 998.2
20260506040003 50 35 8.0 119.0 0.00 0.00 0.00 8 998.6
20260506035001 50 35 8.0 119.0 0.00 0.00 0.00 8 998.6
20260506034003 50 35 8.0 119.0 0.00 0.00 0.00 8 998.7
20260506033002 51 39 8.0 119.0 0.00 0.00 0.00 8 998.9
20260506032002 51 39 8.0 119.0 0.00 0.00 0.00 8 998.8
20260506031002 51 39 8.0 740.0 0.00 0.00 0.00 8 999.0
20260506030002 51 39 8.0 460.0 0.00 0.00 0.00 8 999.1
20260506025002 51 39 8.0 286.0 0.00 0.00 0.00 8 999.2
20260506024003 51 39 8.0 178.0 0.00 0.00 0.00 8 999.3
20260506023002 52 47 9.0 111.0 0.00 0.00 0.00 8 999.3
20260506022003 52 47 9.0 69.0 0.00 0.00 0.00 8 999.4
20260506021002 52 47 9.0 43.0 0.00 0.00 0.00 8 999.4
20260506020002 52 47 9.0 27.0 0.00 0.00 0.00 8 999.4
20260506015002 52 47 9.0 140.0 0.00 0.00 0.00 8 999.5
20260506014002 52 47 9.0 140.0 0.00 0.00 0.00 8 999.7
20260506013002 52 47 9.0 140.0 0.00 0.00 0.00 8 999.6
20260506012002 55 42 9.0 140.0 0.00 0.00 0.00 7 999.5
20260506011002 55 42 9.0 140.0 0.00 0.00 0.00 7 999.6
20260506010002 55 42 9.0 140.0 0.00 0.00 0.00 7 999.4
20260506005002 55 42 9.0 140.0 0.00 0.00 0.00 7 999.4
20260506004002 55 42 9.0 872.0 0.00 0.00 0.00 7 999.3
20260506003002 55 42 9.0 872.0 0.00 0.00 0.00 7 999.3
20260506002002 56 54 8.0 542.0 0.00 0.00 0.00 7 999.5
20260506001002 56 54 8.0 542.0 0.00 0.00 0.00 7 999.6
20260506000002 56 54 8.0 337.0 0.00 0.00 0.00 7 999.7
20260505235003 56 54 8.0 210.0 0.00 0.00 0.00 7 999.8
20260505234002 56 54 8.0 210.0 0.00 0.00 0.00 7 1000.1
20260505233001 56 54 8.0 131.0 0.00 0.00 0.00 7 1000.0